2023/02/22 00:00:00,59.3,-3.4
2023/02/22 00:10:00,59.3,-3.7
2023/02/22 00:20:00,59.3,-3.8
2023/02/22 00:30:00,59.2,-4.0
2023/02/22 00:40:00,59.3,-3.8
2023/02/22 00:50:00,59.3,-3.6
2023/02/22 01:00:00,59.2,-4.0
2023/02/22 01:10:00,59.2,-3.6
2023/02/22 01:20:00,59.1,-3.6
2023/02/22 01:30:00,59.1,-3.5
2023/02/22 01:40:00,59.0,-3.8
2023/02/22 01:50:00,58.9,-4.2
2023/02/22 02:00:00,58.8,-3.9
2023/02/22 02:10:00,58.8,-3.7
2023/02/22 02:20:00,58.8,-3.8
2023/02/22 02:30:00,58.8,-3.8
2023/02/22 02:40:00,58.8,-4.0
2023/02/22 02:50:00,58.8,-3.9
2023/02/22 03:00:00,58.8,-4.0
2023/02/22 03:10:00,58.7,-3.5
2023/02/22 03:20:00,58.6,-3.8
2023/02/22 03:30:00,58.6,-3.5
2023/02/22 03:40:00,58.6,-3.7
2023/02/22 03:50:00,58.6,-3.4
2023/02/22 04:00:00,58.6,-3.8
2023/02/22 04:10:00,58.6,-3.9
2023/02/22 04:20:00,58.6,-3.2
2023/02/22 04:30:00,58.5,-3.9
2023/02/22 04:40:00,58.5,-3.6
2023/02/22 04:50:00,58.3,-3.5
2023/02/22 05:00:00,58.3,-3.7
2023/02/22 05:10:00,58.3,-3.5
2023/02/22 05:20:00,58.1,-3.6
2023/02/22 05:30:00,58.0,-3.8
2023/02/22 05:40:00,58.0,-3.7
2023/02/22 05:50:00,58.0,-3.9
2023/02/22 06:00:00,58.0,-3.6
2023/02/22 06:10:00,58.0,-3.9
2023/02/22 06:20:00,58.1,-3.6
2023/02/22 06:30:00,58.1,-3.6
2023/02/22 06:40:00,58.1,-3.9
2023/02/22 06:50:00,58.1,-3.7
2023/02/22 07:00:00,58.1,-3.5
2023/02/22 07:10:00,58.1,-3.7
2023/02/22 07:20:00,58.1,-3.1
2023/02/22 07:30:00,58.1,-3.5
2023/02/22 07:40:00,58.1,-2.8
2023/02/22 07:50:00,58.1,-2.9
2023/02/22 08:00:00,58.0,-2.4
2023/02/22 08:10:00,58.0,-2.2
2023/02/22 08:20:00,58.0,-2.1
2023/02/22 08:30:00,57.9,-1.5
2023/02/22 08:40:00,57.9,-1.4
2023/02/22 08:50:00,57.8,-1.2
2023/02/22 09:00:00,57.8,-0.5
2023/02/22 09:10:00,57.7, 0.4
2023/02/22 09:20:00,57.7, 0.6
2023/02/22 09:30:00,57.7, 0.5
2023/02/22 09:40:00,57.7, 1.2
2023/02/22 09:50:00,57.6, 5.0
2023/02/22 10:00:00,57.6, 4.0
2023/02/22 10:10:00,57.6, 5.0
2023/02/22 10:20:00,57.7, 3.1
2023/02/22 10:30:00,57.6, 1.7
2023/02/22 10:40:00,57.6, 1.6
2023/02/22 10:50:00,57.4, 4.1
2023/02/22 11:00:00,57.1, 4.5
2023/02/22 11:10:00,57.1, 5.3
2023/02/22 11:20:00,57.1, 5.7
2023/02/22 11:30:00,57.0, 5.9
2023/02/22 11:40:00,56.6, 5.9
2023/02/22 11:50:00,56.6, 4.6
2023/02/22 12:00:00,56.6, 6.1
2023/02/22 12:10:00,56.3, 4.8
2023/02/22 12:20:00,56.1, 6.3
2023/02/22 12:30:00,55.5, 8.2
2023/02/22 12:40:00,55.3, 6.6
2023/02/22 12:50:00,54.9, 6.6
2023/02/22 13:00:00,54.7, 6.5
2023/02/22 13:10:00,54.6, 7.0
2023/02/22 13:20:00,54.1, 8.4
2023/02/22 13:30:00,53.7, 8.0
2023/02/22 13:40:00,53.7, 7.4
2023/02/22 13:50:00,53.6, 7.5
2023/02/22 14:00:00,53.4, 6.0
2023/02/22 14:10:00,53.1, 7.6
2023/02/22 14:20:00,53.1, 7.4
2023/02/22 14:30:00,52.7, 7.5
2023/02/22 14:40:00,52.4, 7.2
2023/02/22 14:50:00,52.1, 6.9
2023/02/22 15:00:00,51.9, 6.7
2023/02/22 15:10:00,52.1, 6.4
2023/02/22 15:20:00,52.1, 6.0
2023/02/22 15:30:00,52.0, 4.6
2023/02/22 15:40:00,51.8, 5.1
2023/02/22 15:50:00,51.7, 3.4
2023/02/22 16:00:00,51.7, 2.7
2023/02/22 16:10:00,51.7, 2.5
2023/02/22 16:20:00,51.5, 2.0
2023/02/22 16:30:00,51.6, 2.7
2023/02/22 16:40:00,51.4, 1.9
2023/02/22 16:50:00,51.5, 1.4
2023/02/22 17:00:00,51.5, 1.1
2023/02/22 17:10:00,51.4, 0.4
2023/02/22 17:20:00,51.3,-0.3
2023/02/22 17:30:00,51.2,-0.4
2023/02/22 17:40:00,51.1,-0.5
2023/02/22 17:50:00,51.1,-0.8
2023/02/22 18:00:00,51.0,-1.0
2023/02/22 18:10:00,51.1,-1.2
2023/02/22 18:20:00,51.1,-1.0
2023/02/22 18:30:00,51.2,-1.5
2023/02/22 18:40:00,51.1,-1.3
2023/02/22 18:50:00,51.1,-1.2
2023/02/22 19:00:00,51.0,-1.6
2023/02/22 19:10:00,51.0,-1.4
2023/02/22 19:20:00,50.9,-1.7
2023/02/22 19:30:00,50.8,-1.7
2023/02/22 19:40:00,50.8,-1.3
2023/02/22 19:50:00,50.8,-1.7
2023/02/22 20:00:00,50.8,-1.7
2023/02/22 20:10:00,50.8,-2.0
2023/02/22 20:20:00,50.7,-1.6
2023/02/22 20:30:00,50.6,-1.8
2023/02/22 20:40:00,50.5,-1.6
2023/02/22 20:50:00,50.5,-1.6
2023/02/22 21:00:00,50.4,-1.2
2023/02/22 21:10:00,50.3,-1.2
2023/02/22 21:20:00,50.3,-1.5
2023/02/22 21:30:00,50.3,-1.7
2023/02/22 21:40:00,50.4,-2.0
2023/02/22 21:50:00,50.4,-1.7
2023/02/22 22:00:00,50.4,-1.6
2023/02/22 22:10:00,50.4,-2.1
2023/02/22 22:20:00,50.4,-1.6
2023/02/22 22:30:00,50.4,-1.7
2023/02/22 22:40:00,50.5,-1.1
2023/02/22 22:50:00,50.5,-1.4
2023/02/22 23:00:00,50.4,-1.3
2023/02/22 23:10:00,50.3,-1.6
2023/02/22 23:20:00,50.4,-1.2
2023/02/22 23:30:00,50.4,-1.4
2023/02/22 23:40:00,50.4,-0.9
2023/02/22 23:50:00,50.4,-1.2
